Location: Dampvalley
(47.9094°N, 6.1967°E)
Time: 02:53:47
(UTC+00:00)

N. Korean satellite - Pass Details

Date: 03 December 2022
Orbit: 407 x 444 km, 97.3° (Epoch: 28 January)

Event Time Altitude Azimuth Distance (km) Brightness Sun altitude
Rises 04:08:38 0° 26° (NNE) 2,520 10.5 -28.8°
Reaches altitude 10° 04:11:06 10° 43° (NE) 1,632 9.7 -28.4°
Maximum altitude 04:13:47 20° 93° (E) 1,116 9.1 -27.9°
Drops below altitude 10° 04:16:26 10° 143° (SE) 1,603 9.6 -27.5°
Sets 04:18:49 0° 161° (SSE) 2,460 10.4 -27.1°
